This is the latest recevied weather packets stored in our database for station/object SQ5DCP-1. If no packets are shown the sender has not sent any weather packets the latest 10 day(s).
| Time | Temp. | Humidity | Pressure | Rain* | Wind** | Luminosity | Snow |
|---|---|---|---|---|---|---|---|
| 1778027119 | 13.89° C | 52% | 1007 hPa | 0 mm | - | - | - |
| 1778026849 | 13.89° C | 52% | 1007 hPa | 0 mm | - | - | - |
| 1778026817 | 13.89° C | 52% | 1007 hPa | 0 mm | - | - | - |
| 1778026535 | 13.89° C | 51% | 1007.1 hPa | 0 mm | - | - | - |
| 1778026234 | 13.89° C | 51% | 1007.1 hPa | 0 mm | - | - | - |
| 1778025630 | 14.44° C | 51% | 1007 hPa | 0 mm | - | - | - |
| 1778025328 | 14.44° C | 51% | 1007.1 hPa | 0 mm | - | - | - |
| 1778025027 | 14.44° C | 50% | 1007.2 hPa | 0 mm | - | - | - |
| 1778024121 | 14.44° C | 50% | 1007.3 hPa | 0 mm | - | - | - |
| 1778023850 | 14.44° C | 50% | 1007.1 hPa | 0 mm | - | - | - |
| 1778023518 | 14.44° C | 50% | 1007.3 hPa | 0 mm | - | - | - |
| 1778023216 | 14.44° C | 50% | 1007.2 hPa | 0 mm | - | - | - |
| 1778018729 | 16.67° C | 46% | 1007.2 hPa | 0 mm | - | - | - |
| 1778015430 | 17.78° C | 43% | 1007.1 hPa | 0 mm | - | - | - |
| 1778014827 | 18.33° C | 43% | 1007.2 hPa | 0 mm | - | - | - |
| 1778010923 | 18.89° C | 42% | 1006.9 hPa | 0 mm | - | - | - |
| 1778009735 | 19.44° C | 40% | 1006.8 hPa | 0 mm | - | - | - |
| 1778009433 | 20° C | 40% | 1006.7 hPa | 0 mm | - | - | - |
| 1778009131 | 20° C | 39% | 1006.8 hPa | 0 mm | - | - | - |
| 1778008829 | 20.56° C | 39% | 1006.8 hPa | 0 mm | - | - | - |
| 1778008527 | 20.56° C | 38% | 1006.8 hPa | 0 mm | - | - | - |
| 1778008226 | 20.56° C | 38% | 1006.9 hPa | 0 mm | - | - | - |
| 1778007622 | 21.11° C | 38% | 1006.8 hPa | 0 mm | - | - | - |
| 1778006716 | 21.67° C | 37% | 1006.8 hPa | 0 mm | - | - | - |
| 1778006133 | 22.22° C | 36% | 1006.8 hPa | 0 mm | - | - | - |
* Rain latest hour (hover to see other rain measurements)
** Current wind speed in m/s (hover to see current wind gust speed)